Walworth, NY (14568)

6:54 PM EDT on July 04, 2015 (GMT -0400)
Walworth/Huddle | | Change Station
CLOSE
Current Station
Personal Weather Station
Location: Walworth, NY
Elevation: 459 ft
Nearby Weather Stations

Elev 459 ft 43.13 °N, 77.27 °W | Updated 21 minutes ago

Partly Cloudy
Partly Cloudy
75.0 °F
Feels Like 77 °F
N
0.0
Wind Variable Wind from North
Gusts 4.0 mph

Today
High -- | Low -- °F
--% Chance of Precip.
Yesterday
High -- | Low -- °F
Precip. -- in
5:34 AM 8:51 PM
Waning Gibbous, 89% visible
Pressure 29.96 in
Visibility 10.0 miles
Clouds Few 4000 ft
Scattered Clouds 25000 ft
Heat Index 77 °F
Dew Point 38 °F
Humidity 26%
Rainfall 0.00 in
Snow Depth Not available.
UV 2 out of 12
Pollen 2.20 out of 12
Air Quality Not available.
Flu Activity Not available.
METAR KROC 042154Z 33008KT 10SM FEW040 SCT250 23/11 A2995 RMK AO2 SLP144 T02330106

More Conditions Fewer Conditions

Pressure 29.96 in
Visibility 10.0 miles
Clouds Few 4000 ft
Scattered Clouds 25000 ft
Heat Index 77 °F
Dew Point 38 °F
Humidity 26%
Rainfall 0.00 in
Snow Depth Not available.
UV 2 out of 12
Pollen 2.20 out of 12
Air Quality Not available.
Flu Activity Not available.
METAR KROC 042154Z 33008KT 10SM FEW040 SCT250 23/11 A2995 RMK AO2 SLP144 T02330106

More Conditions Fewer Conditions

10-Day Weather Forecast

×

Almanac

Astronomy

Jul. 04, 2015 Rise Set
Actual Time
Civil Twilight
Nautical Twilight
Astronomical Twilight
Moon
Length of Visible Light
Length of Day
Tomorrow will be .
, % of the Moon is Illuminated

Today's Extremes

State Highs State Lows

Community

WunderPhotos

Upload Photos

1,835,105 photos uploaded!

WunderBlogs® & News

Nearby

Air Quality

  Air Quality AQ Index Pollutant
Not available.

Snow Depth

Station Depth Elevation

Earthquake Activity

City Distance Mag. Time & Date
Minimum magnitude displayed is 2.5.

Coastal Water Temperatures

Place Temperature

Stations

Nearby Weather Stations

Station Location Temp. Windchill Dew Point Humidity Wind Precip. Elev Updated Type